When you browse on this site, cookies collect data to enhance your experience and personalize the content and advertising you see.
Visit our Privacy Policy to learn more. By continuing to use the site, you agree to this use of cookies and data.
  • în România
  • Lista ţărilor
  • Pe 7 zile
  • Temperatura apei
  • Meteo pe hartă
  • Widget-uri
  • user-avatar
    Intrare

    Meteo pe oră la Matlock

    Astăzi, 31 Mai, Duminică

    Timp Temperatura Precipitaţii Vânt Presiune Umiditate
    00:00 +9°C° 0 mm 3 m/s 751 mmHg 92%
    01:00 +8°C° 0 mm 3 m/s 751 mmHg 92%
    02:00 +8°C° 0 mm 3 m/s 751 mmHg 92%
    03:00 +7°C° 0 mm 3 m/s 751 mmHg 92%
    04:00 +8°C° 0 mm 3 m/s 751 mmHg 89%
    05:00 +8°C° 0 mm 4 m/s 751 mmHg 86%
    06:00 +10°C° 0 mm 4 m/s 752 mmHg 85%
    07:00 +12°C° 0 mm 5 m/s 752 mmHg 79%
    08:00 +14°C° 0 mm 5 m/s 752 mmHg 73%
    09:00 +15°C° 0 mm 5 m/s 752 mmHg 66%
    10:00 +17°C° 0 mm 5 m/s 752 mmHg 63%
    11:00 +19°C° 0 mm 5 m/s 752 mmHg 60%
    12:00 +21°C° 0 mm 4 m/s 752 mmHg 56%
    13:00 +21°C° 0.1 mm 5 m/s 751 mmHg 57%
    14:00 +21°C° 0.1 mm 5 m/s 751 mmHg 58%
    15:00 +21°C° 0.1 mm 5 m/s 751 mmHg 59%
    16:00 +20°C° 0 mm 5 m/s 751 mmHg 61%
    17:00 +19°C° 0 mm 5 m/s 751 mmHg 63%
    18:00 +17°C° 0 mm 5 m/s 752 mmHg 64%
    19:00 +15°C° 0 mm 4 m/s 752 mmHg 69%
    20:00 +13°C° 0 mm 4 m/s 752 mmHg 73%
    21:00 +11°C° 0 mm 4 m/s 752 mmHg 77%
    22:00 +10°C° 0 mm 3 m/s 752 mmHg 79%
    23:00 +9°C° 0 mm 3 m/s 753 mmHg 80%

    Mâine, 1 Iunie, Luni

    Timp Temperatura Precipitaţii Vânt Presiune Umiditate
    00:00 +9°C° 0 mm 3 m/s 753 mmHg 82%
    01:00 +8°C° 0 mm 3 m/s 753 mmHg 83%
    02:00 +8°C° 0 mm 3 m/s 752 mmHg 85%
    03:00 +8°C° 0 mm 3 m/s 752 mmHg 86%
    04:00 +9°C° 0 mm 3 m/s 752 mmHg 85%
    05:00 +10°C° 0 mm 3 m/s 752 mmHg 84%
    06:00 +11°C° 0 mm 4 m/s 753 mmHg 82%
    07:00 +12°C° 0 mm 4 m/s 753 mmHg 78%
    08:00 +14°C° 0 mm 4 m/s 753 mmHg 74%
    09:00 +16°C° 0 mm 5 m/s 753 mmHg 69%
    10:00 +16°C° 0 mm 5 m/s 753 mmHg 66%
    11:00 +18°C° 0 mm 4 m/s 753 mmHg 62%
    12:00 +19°C° 0 mm 4 m/s 753 mmHg 59%
    13:00 +20°C° 0 mm 4 m/s 752 mmHg 60%
    14:00 +20°C° 0 mm 4 m/s 752 mmHg 61%
    15:00 +20°C° 0 mm 4 m/s 752 mmHg 62%
    16:00 +19°C° 0 mm 4 m/s 752 mmHg 65%
    17:00 +18°C° 0 mm 4 m/s 752 mmHg 67%
    18:00 +18°C° 0 mm 4 m/s 752 mmHg 69%
    19:00 +14°C° 0 mm 4 m/s 752 mmHg 72%
    20:00 +12°C° 0 mm 4 m/s 752 mmHg 75%
    21:00 +10°C° 0 mm 3 m/s 752 mmHg 78%
    22:00 +10°C° 0 mm 3 m/s 752 mmHg 82%
    23:00 +9°C° 0 mm 3 m/s 752 mmHg 86%

    Poimâine, 2 Iunie, Marţi

    Timp Temperatura Precipitaţii Vânt Presiune Umiditate
    00:00 +9°C° 0 mm 3 m/s 752 mmHg 90%
    01:00 +8°C° 0 mm 2 m/s 752 mmHg 90%
    02:00 +8°C° 0 mm 2 m/s 751 mmHg 91%
    03:00 +8°C° 0 mm 2 m/s 751 mmHg 91%
    04:00 +9°C° 0 mm 2 m/s 751 mmHg 89%
    05:00 +10°C° 0 mm 2 m/s 751 mmHg 87%
    06:00 +12°C° 0 mm 2 m/s 751 mmHg 84%
    07:00 +13°C° 0 mm 2 m/s 750 mmHg 78%
    08:00 +15°C° 0 mm 2 m/s 750 mmHg 71%
    09:00 +16°C° 0 mm 2 m/s 750 mmHg 64%
    10:00 +17°C° 0 mm 2 m/s 750 mmHg 60%
    11:00 +18°C° 0 mm 2 m/s 749 mmHg 55%
    12:00 +19°C° 0 mm 2 m/s 749 mmHg 50%
    13:00 +20°C° 0 mm 2 m/s 749 mmHg 49%
    14:00 +22°C° 0 mm 1 m/s 748 mmHg 47%
    15:00 +22°C° 0 mm 1 m/s 747 mmHg 46%
    16:00 +22°C° 0 mm 1 m/s 747 mmHg 51%
    17:00 +20°C° 0 mm 2 m/s 746 mmHg 56%
    18:00 +20°C° 0 mm 2 m/s 746 mmHg 61%
    19:00 +18°C° 0 mm 2 m/s 746 mmHg 67%
    20:00 +16°C° 0 mm 2 m/s 745 mmHg 72%
    21:00 +14°C° 0 mm 2 m/s 745 mmHg 78%
    22:00 +13°C° 0 mm 1 m/s 745 mmHg 80%
    23:00 +13°C° 0 mm 1 m/s 744 mmHg 81%

    3 Iunie, Miercuri

    Timp Temperatura Precipitaţii Vânt Presiune Umiditate
    00:00 +12°C° 0 mm 1 m/s 744 mmHg 83%
    01:00 +12°C° 0 mm 1 m/s 743 mmHg 84%
    02:00 +12°C° 0 mm 1 m/s 743 mmHg 85%
    03:00 +11°C° 0 mm 1 m/s 742 mmHg 87%
    04:00 +12°C° 0 mm 2 m/s 742 mmHg 85%
    05:00 +12°C° 0 mm 2 m/s 742 mmHg 83%
    06:00 +13°C° 0 mm 2 m/s 742 mmHg 81%
    07:00 +12°C° 0.3 mm 3 m/s 742 mmHg 81%
    08:00 +12°C° 0.3 mm 4 m/s 742 mmHg 82%
    09:00 +11°C° 0.3 mm 4 m/s 742 mmHg 82%
    10:00 +12°C° 0.1 mm 5 m/s 742 mmHg 78%
    11:00 +13°C° 0.1 mm 5 m/s 742 mmHg 74%
    12:00 +14°C° 0.1 mm 5 m/s 742 mmHg 70%
    13:00 +15°C° 0 mm 5 m/s 742 mmHg 68%
    14:00 +15°C° 0 mm 5 m/s 742 mmHg 66%
    15:00 +16°C° 0 mm 5 m/s 742 mmHg 64%
    16:00 +15°C° 0.1 mm 5 m/s 742 mmHg 68%
    17:00 +14°C° 0.1 mm 5 m/s 742 mmHg 72%
    18:00 +13°C° 0.1 mm 5 m/s 742 mmHg 76%
    19:00 +12°C° 0 mm 5 m/s 742 mmHg 78%
    20:00 +10°C° 0 mm 5 m/s 742 mmHg 80%
    21:00 +9°C° 0 mm 5 m/s 742 mmHg 82%
    22:00 +8°C° 0 mm 4 m/s 742 mmHg 84%
    23:00 +9°C° 0 mm 3 m/s 741 mmHg 86%

    4 Iunie, Joi

    Timp Temperatura Precipitaţii Vânt Presiune Umiditate
    00:00 +8°C° 0 mm 3 m/s 741 mmHg 88%
    01:00 +7°C° 0 mm 2 m/s 741 mmHg 88%
    02:00 +7°C° 0 mm 2 m/s 740 mmHg 88%
    03:00 +6°C° 0 mm 2 m/s 740 mmHg 88%
    04:00 +7°C° 0 mm 2 m/s 740 mmHg 85%
    05:00 +8°C° 0 mm 2 m/s 740 mmHg 81%
    06:00 +8°C° 0 mm 2 m/s 739 mmHg 78%
    07:00 +10°C° 0 mm 2 m/s 739 mmHg 74%
    08:00 +11°C° 0 mm 3 m/s 739 mmHg 71%
    09:00 +12°C° 0 mm 3 m/s 739 mmHg 67%
    10:00 +13°C° 0 mm 4 m/s 739 mmHg 63%
    11:00 +13°C° 0 mm 5 m/s 739 mmHg 60%
    12:00 +14°C° 0 mm 6 m/s 738 mmHg 57%
    13:00 +14°C° 0 mm 6 m/s 738 mmHg 58%
    14:00 +14°C° 0 mm 6 m/s 738 mmHg 59%
    15:00 +14°C° 0 mm 6 m/s 737 mmHg 60%
    16:00 +14°C° 0 mm 6 m/s 737 mmHg 62%
    17:00 +13°C° 0 mm 6 m/s 737 mmHg 65%
    18:00 +13°C° 0 mm 6 m/s 736 mmHg 67%
    19:00 +12°C° 0 mm 5 m/s 736 mmHg 71%
    20:00 +11°C° 0 mm 4 m/s 736 mmHg 75%
    21:00 +10°C° 0 mm 4 m/s 736 mmHg 79%
    22:00 +9°C° 0 mm 5 m/s 735 mmHg 79%
    23:00 +9°C° 0 mm 5 m/s 735 mmHg 78%

    5 Iunie, Vineri

    Timp Temperatura Precipitaţii Vânt Presiune Umiditate
    00:00 +9°C° 0 mm 6 m/s 734 mmHg 78%
    01:00 +9°C° 0 mm 7 m/s 733 mmHg 78%
    02:00 +9°C° 0 mm 7 m/s 732 mmHg 79%
    03:00 +10°C° 0 mm 7 m/s 732 mmHg 80%
    04:00 +10°C° 0.1 mm 7 m/s 731 mmHg 80%
    05:00 +10°C° 0.1 mm 7 m/s 730 mmHg 81%
    06:00 +10°C° 0.1 mm 8 m/s 730 mmHg 82%
    07:00 +11°C° 0.1 mm 9 m/s 729 mmHg 76%
    08:00 +11°C° 0.1 mm 10 m/s 729 mmHg 70%
    09:00 +11°C° 0.1 mm 10 m/s 729 mmHg 64%
    10:00 +11°C° 0.1 mm 10 m/s 729 mmHg 65%
    11:00 +11°C° 0.1 mm 9 m/s 729 mmHg 65%
    12:00 +11°C° 0.1 mm 9 m/s 730 mmHg 66%
    13:00 +11°C° 0.1 mm 8 m/s 730 mmHg 64%
    14:00 +11°C° 0.1 mm 8 m/s 731 mmHg 61%
    15:00 +12°C° 0.1 mm 7 m/s 731 mmHg 59%
    16:00 +11°C° 0.1 mm 7 m/s 731 mmHg 59%
    17:00 +11°C° 0.1 mm 7 m/s 732 mmHg 59%
    18:00 +11°C° 0.1 mm 7 m/s 732 mmHg 58%
    19:00 +9°C° 0 mm 7 m/s 732 mmHg 61%
    20:00 +8°C° 0 mm 6 m/s 732 mmHg 63%
    21:00 +7°C° 0 mm 5 m/s 733 mmHg 65%
    22:00 +6°C° 0 mm 5 m/s 733 mmHg 67%
    23:00 +6°C° 0 mm 5 m/s 733 mmHg 69%
    Arată mai mult